Cloud_Cover
37 5 3 97 51 100 7 81 100 100 100 100 100 100 100 100 100 100 100 100 98 100 100 100 94 100 100 100 100 100 100 100 52 0 4 5 3 0 0 0 0 0 0 0 0 0 0 0 0
100 74 5 71 95 100 68 34 100 100 100 99 100 100 100 100 100 100 100 100 100 100 99 100 100 100 100 100 100 100 100 100 100 7 0 27 12 0 0 0 0 0 0 0 0 0 2 0 0
100 100 86 39 92 95 98 34 5 93 98 100 90 76 100 100 99 100 100 100 100 100 99 100 100 100 100 5 5 24 98 100 100 97 4 2 0 4 4 5 5 0 0 1 4 0 1 0 3
27 100 100 92 100 30 100 100 6 33 100 98 85 33 100 100 100 100 92 100 100 100 100 100 100 100 100 100 92 38 13 100 100 100 90 5 88 6 5 5 5 5 5 5 1 5 5 2 2
45 19 100 74 64 100 42 100 40 5 14 75 100 90 100 100 100 100 100 100 100 100 100 100 100 100 100 100 100 100 97 5 79 99 91 100 100 20 5 5 4 15 24 31 5 5 18 5 48
98 56 100 68 100 100 100 93 100 95 86 80 100 100 100 99 100 100 100 100 100 100 100 100 100 100 100 100 100 100 100 90 27 5 38 22 5 5 5 9 92 85 9 6 42 100 83 57 86
33 7 82 95 98 100 91 15 4 73 75 78 100 100 100 99 26 100 100 100 100 100 100 100 100 100 100 100 100 100 100 100 100 100 60 5 5 5 5 1 2 5 5 36 74 20 42 80 30
78 72 100 100 97 100 100 5 6 5 7 10 100 100 100 34 100 100 100 100 100 100 100 100 100 100 100 100 100 100 100 100 26 8 38 91 7 5 5 5 0 0 0 0 0 0 0 0 0
5 34 100 100 88 97 98 68 26 7 96 42 23 92 68 24 83 100 73 96 100 100 100 100 100 98 94 100 100 100 100 100 100 100 97 89 54 5 5 2 1 0 0 0 2 2 0 0 0
3 4 99 100 95 100 100 100 93 23 5 5 31 5 78 100 45 100 76 5 3 57 100 100 100 100 100 94 42 100 100 71 69 24 17 26 21 13 5 5 2 0 0 0 0 0 1 5 9
0 0 98 63 56 95 100 100 100 40 28 5 13 63 94 100 76 100 55 67 5 3 5 90 100 84 13 34 67 39 36 37 28 8 17 10 1 0 0 0 0 0 0 0 0 0 100 100 100
0 0 4 97 100 100 100 100 98 52 41 6 5 5 5 100 100 60 41 5 100 91 6 6 92 64 98 40 20 4 2 10 11 0 0 0 0 0 0 0 0 0 63 67 98 100 100 100 100
3 0 3 82 100 100 100 100 100 100 98 6 5 13 80 100 100 63 2 5 7 99 100 100 99 49 45 3 7 16 16 1 0 0 0 0 0 0 4 3 4 4 61 100 100 86 96 100 100
12 0 0 24 24 100 100 100 100 100 100 81 52 43 100 100 100 81 22 5 63 22 99 100 100 100 66 86 100 100 100 40 0 1 0 0 3 26 68 2 63 66 16 79 98 100 100 100 100
2 0 47 0 99 100 100 100 100 100 100 100 100 100 100 100 100 98 85 96 47 33 20 12 89 95 36 7 97 100 100 97 11 5 5 19 7 6 4 14 45 88 8 10 67 69 100 100 100
0 0 0 0 52 100 100 100 100 100 100 100 100 100 100 100 70 37 18 27 42 28 100 100 59 36 51 62 15 7 6 78 98 100 100 94 18 2 3 38 7 28 13 4 99 100 100 100 100
0 0 0 14 29 100 14 98 100 100 100 100 100 100 55 86 91 100 100 100 100 100 95 8 36 99 100 100 100 98 23 86 100 100 100 95 29 5 44 54 78 89 18 1 5 10 56 66 84
0 0 61 100 99 100 90 92 100 100 100 100 100 100 100 100 100 96 62 100 100 100 67 12 47 17 96 100 95 77 33 32 85 100 100 100 71 97 100 100 14 0 0 0 3 0 1 14 8
0 2 92 5 3 5 28 100 100 100 100 100 100 24 100 100 76 54 92 40 100 99 100 100 100 100 100 100 100 100 100 100 100 100 100 100 100 100 100 97 14 4 3 0 5 17 1 0 0
0 1 65 92 2 0 0 5 100 100 100 100 100 16 40 100 99 100 100 100 100 24 43 64 95 68 100 78 99 98 100 100 100 100 100 100 100 100 97 86 79 99 50 5 37 6 2 0 0
0 5 14 52 1 0 0 0 99 100 100 37 27 94 97 53 100 95 100 100 100 79 91 21 68 100 82 100 99 91 84 100 92 100 100 100 100 100 99 85 100 78 48 37 1 1 0 0 0
4 0 0 69 97 98 20 3 3 100 99 51 94 42 12 52 97 100 100 100 100 100 100 100 84 80 50 14 23 16 73 61 32 95 97 56 95 80 64 53 88 81 66 2 0 0 0 0 0
0 0 0 0 70 94 100 34 4 0 98 89 84 98 2 3 22 4 77 100 12 11 100 59 100 100 100 100 100 42 0 85 83 97 100 100 100 98 100 100 100 96 84 0 2 5 3 0 0
4 5 0 0 0 2 3 0 0 1 59 100 100 66 12 41 100 32 77 100 100 100 93 79 70 8 52 74 82 9 0 0 7 67 98 100 100 99 100 67 95 100 100 32 16 12 5 2 0
50 7 9 1 0 2 8 74 11 100 100 98 100 95 57 24 5 0 51 98 100 100 100 100 97 4 0 0 0 0 0 0 0 1 60 67 100 94 98 91 25 30 100 93 85 64 5 3 2
0 49 60 5 5 39 93 100 100 100 100 99 91 86 94 68 55 15 36 88 98 97 78 76 23 10 1 26 5 4 5 2 0 0 5 20 87 76 2 4 0 4 11 5 19 78 52 5 19
0 0 0 3 13 56 100 95 100 12 88 37 5 5 65 92 76 66 96 99 98 99 100 85 91 100 100 100 100 77 5 5 5 2 1 98 100 21 5 5 33 5 56 98 82 86 100 48 58
0 0 0 0 0 73 88 100 56 42 9 86 100 100 65 42 73 71 20 5 5 23 22 59 44 38 28 42 20 2 0 0 0 3 3 0 0 62 85 92 90 40 46 100 100 75 42 35 21
0 0 0 0 0 0 3 2 2 0 0 1 1 2 5 4 4 4 3 5 5 5 5 5 5 1 0 0 0 0 0 0 0 0 0 0 0 0 0 2 14 58 78 100 86 86 68 2 0
0 0 0 0 0 0 0 0 0 0 0 0 0 0 0 0 2 5 5 5 22 6 5 1 0 0 0 0 0 0 0 0 0 0 0 3 0 0 4 5 5 6 53 52 68 100 9 0 2